Regional Weather Roundup
Issued by NWS Glasgow, MT

Home | Current Version | Previous Version | Text Only | Print | Product List | Glossary On
Versions: 1 2 3 4 5 6 7 8 9 10 11 12 13 14 15 16 17 18 19 20 21 22 23 24 25 26 27
000
ASUS45 KGGW 261315
RWRGGW
HOURLY REGIONAL WEATHER ROUNDUP FOR NORTHEAST MONTANA
NATIONAL WEATHER SERVICE GLASGOW MONTANA
700 AM MDT MON SEP 26 2016

NOTE: "FAIR" INDICATES FEW OR NO CLOUDS BELOW 12,000 FEET WITH NO
SIGNIFICANT WEATHER AND/OR OBSTRUCTIONS TO VISISBILITY.

NORTHEAST MONTANA


CITY           SKY/WX    TMP DP  RH WIND       PRES   REMARKS
GLASGOW        CLEAR     39  36  89 NW13      30.23R
PLENTYWOOD       N/A     38  32  79 NW6         N/A
WOLF POINT     CLEAR     35  34  96 W5        30.24R
JORDAN           N/A     43  40  89 NW10      30.26R
WINNETT          N/A     42  39  89 SW5         N/A
SIDNEY         CLEAR     36  35  96 S3        30.22S
GLENDIVE       CLEAR     38  35  89 SW3       30.23R
MALTA            N/A     41  39  93 SW3         N/A
OPHEIM           N/A     46  28  49 W5        30.09R

FORT PECK REPORTS


CITY           SKY/WX    TMP DP  RH WIND       PRES   REMARKS
FORT PECK        N/A     40  39  97 W8          N/A
THE PINES        N/A     47  38  71 CALM        N/A

SOUTHEAST MONTANA


CITY           SKY/WX    TMP DP  RH WIND       PRES   REMARKS
BILLINGS       PTCLDY    50  42  74 SW13      30.35R
MILES CITY     CLEAR     45  39  79 W6        30.26R
BAKER          CLEAR     36  34  92 CALM      30.24F
LIVINGSTON     CLOUDY    44  39  82 NW14      30.38S

CENTRAL MONTANA


CITY           SKY/WX    TMP DP  RH WIND       PRES   REMARKS
HAVRE          CLEAR     43  40  89 SW12      30.26S
LEWISTOWN      CLEAR     42  38  85 CALM      30.34S
GREAT FALLS    CLEAR     48  41  76 SW12      30.31F
CUT BANK       MOCLDY    42  38  85 NE5       30.28S
HELENA         CLOUDY    43  39  86 CALM      30.38R
BUTTE          CLOUDY    34  33  96 CALM      30.47R
BOZEMAN        CLOUDY    36  34  92 S5        30.42R

WESTERN MONTANA


CITY           SKY/WX    TMP DP  RH WIND       PRES   REMARKS
MISSOULA       CLEAR     41  40  96 CALM      30.42S
KALISPELL      NOT AVBL

NORTH DAKOTA


CITY           SKY/WX    TMP DP  RH WIND       PRES   REMARKS
WILLISTON      CLEAR     39  35  86 S7        30.20S
DICKINSON      CLEAR     39  36  89 W7        30.19S
MINOT          CLEAR     47  33  58 W16       30.12R
BISMARCK       CLEAR     40  34  79 W7        30.17S

SOUTHERN SASKATCHEWAN


CITY           SKY/WX    TMP DP  RH WIND       PRES   REMARKS
REGINA         CLEAR     34  32  93 W3        30.18R
MOOSE JAW      PTCLDY    36  32  87 W5        30.21R
ESTEVAN        NOT AVBL
SWIFT CURRENT  CLEAR     39  34  81 W12       30.19S





USA.gov is the U.S. government's official web portal to all federal, state and local government web resources and services.